Weather History for KSPB - March, 2014

Change the Weather History Date:

Tuesday, March 25, 2014

  Actual Average Record
Temperature  
Mean Temperature 49 °F -  
Max Temperature 57 °F - 63 °F (2013)
Min Temperature 41 °F - 30 °F (2008)
Degree Days  
Heating Degree Days 16    
Month to date heating degree days 433  
Since 1 July heating degree days 4064  
Cooling Degree Days 0    
Month to date cooling degree days 0  
Year to date cooling degree days 0  
Moisture  
Dew Point 45 °F    
Average Humidity 84    
Maximum Humidity 96    
Minimum Humidity 71    
Precipitation  
Precipitation 0.38 in - 0.80 in (2004)
Month to date precipitation 5.80  
Year to date precipitation 14.90  
Sea Level Pressure  
Sea Level Pressure 29.70 in    
Wind  
Wind Speed 6 mph (SSW)    
Max Wind Speed 18 mph    
Max Gust Speed 30 mph    
Visibility 9 miles    
Events Rain , Thunderstorm    
T = Trace of Precipitation, MM = Missing Value Source: NWS Daily Summary

Daily Weather History Graph

Daily Weather History Graph

Search for Another Location

Airport or City:

Trip Planner

Search our weather history database for the weather conditions in past years. The results will help you decide how hot, cold, wet, or windy it might be!

Date:

Astronomy

Mar. 25, 2014 Rise Set
Actual Time 7:04 AM PDT 7:30 PM PDT
Civil Twilight 6:34 AM PDT 8:00 PM PDT
Nautical Twilight 5:59 AM PDT 8:35 PM PDT
Astronomical Twilight 5:23 AM PDT 9:12 PM PDT
Moon 3:46 AM PDT (3/25) 1:53 PM PDT (3/25)
Length of Visible Light 13h 25m
Length of Day
12h 26m
Waning Crescent, 31% of the Moon is Illuminated
Mar 25
Waning Crescent
Mar 30
New
Apr 7
First Quarter
Apr 15
Full
Apr 22
Last Quarter

Hourly Weather History & Observations

Time (PDT) Temp. Windchill Dew Point Humidity Pressure Visibility Wind Dir Wind Speed Gust Speed Precip Events Conditions
12:53 AM 50.0 °F - 45.0 °F 83% 29.86 in 10.0 mi Calm Calm - N/A   Clear
1:53 AM 48.0 °F - 43.0 °F 83% 29.83 in 10.0 mi Calm Calm - N/A   Scattered Clouds
2:53 AM 48.0 °F - 43.0 °F 83% 29.82 in 10.0 mi WSW 3.5 mph - N/A   Mostly Cloudy
3:53 AM 46.9 °F - 43.0 °F 86% 29.80 in 10.0 mi WSW 4.6 mph - N/A   Overcast
4:53 AM 48.9 °F - 43.0 °F 80% 29.79 in 10.0 mi South 3.5 mph - 0.00 in Rain Light Rain
5:53 AM 48.9 °F - 42.1 °F 77% 29.82 in 8.0 mi Variable 4.6 mph - 0.04 in Rain Light Rain
6:53 AM 46.9 °F - 44.1 °F 90% 29.78 in 6.0 mi ESE 8.1 mph - 0.09 in Rain Light Rain
7:51 AM 48.2 °F - 46.4 °F 93% 29.77 in 10.0 mi Variable 3.5 mph - 0.01 in Rain Light Rain
7:53 AM 48.0 °F - 46.0 °F 93% 29.76 in 10.0 mi Variable 3.5 mph - 0.02 in Rain Light Rain
8:53 AM 48.0 °F - 46.0 °F 93% 29.73 in 5.0 mi South 3.5 mph - 0.01 in Rain Light Rain
9:05 AM 48.0 °F - 46.0 °F 93% 29.72 in 6.0 mi South 4.6 mph - 0.01 in Rain Light Rain
9:53 AM 48.9 °F - 46.9 °F 93% 29.69 in 10.0 mi Variable 3.5 mph - 0.01 in   Overcast
10:53 AM 50.0 °F - 46.0 °F 86% 29.68 in 10.0 mi SSE 4.6 mph - 0.00 in Rain Light Rain
11:53 AM 54.0 °F - 50.0 °F 86% 29.66 in 10.0 mi SSE 6.9 mph - 0.02 in   Overcast
12:53 PM 55.9 °F - 46.0 °F 69% 29.64 in 10.0 mi South 15.0 mph 23.0 mph 0.00 in   Mostly Cloudy
1:53 PM 55.0 °F - 48.0 °F 77% 29.64 in 10.0 mi South 10.4 mph 19.6 mph 0.03 in   Scattered Clouds
2:53 PM 53.1 °F - 46.0 °F 77% 29.62 in 10.0 mi South 15.0 mph 24.2 mph 0.00 in Rain Light Rain
3:13 PM 54.0 °F - 46.0 °F 75% 29.64 in 10.0 mi SSW 13.8 mph 23.0 mph 0.00 in Rain , Thunderstorm Light Rain
3:29 PM 50.0 °F - 45.0 °F 83% 29.65 in 3.0 mi West 9.2 mph - 0.04 in Rain Rain
3:33 PM 50.0 °F - 45.0 °F 83% 29.65 in 1.8 mi WSW 12.7 mph 17.3 mph 0.09 in Rain Rain
3:44 PM 51.1 °F - 46.0 °F 83% 29.64 in 3.0 mi South 11.5 mph 25.3 mph 0.14 in Rain Rain
3:53 PM 51.1 °F - 45.0 °F 80% 29.64 in 4.0 mi South 9.2 mph 20.7 mph 0.16 in Rain Light Rain
4:53 PM 53.1 °F - 46.9 °F 80% 29.64 in 10.0 mi SSW 10.4 mph 18.4 mph 0.00 in Rain Light Rain
5:26 PM 53.1 °F - 45.0 °F 74% 29.64 in 10.0 mi SSW 8.1 mph 21.9 mph 0.00 in Rain Light Rain
5:38 PM 53.1 °F - 45.0 °F 74% 29.64 in 10.0 mi Variable 6.9 mph - 0.00 in   Scattered Clouds
5:53 PM 54.0 °F - 46.0 °F 75% 29.65 in 10.0 mi Variable 4.6 mph 17.3 mph 0.00 in   Clear
6:53 PM 53.1 °F - 44.1 °F 71% 29.67 in 10.0 mi Calm Calm - N/A   Overcast
7:53 PM 48.0 °F - 43.0 °F 83% 29.68 in 10.0 mi SSE 6.9 mph - N/A   Scattered Clouds
8:53 PM 48.0 °F - 43.0 °F 83% 29.69 in 10.0 mi Calm Calm - N/A   Mostly Cloudy
9:53 PM 45.0 °F 42.6 °F 42.1 °F 90% 29.69 in 10.0 mi SW 4.6 mph - N/A   Partly Cloudy
10:53 PM 43.0 °F 40.3 °F 41.0 °F 93% 29.69 in 10.0 mi WSW 4.6 mph - N/A   Mostly Cloudy
11:53 PM 42.1 °F 40.2 °F 41.0 °F 96% 29.68 in 10.0 mi NW 3.5 mph - N/A   Partly Cloudy